User: anonymous   Login
Location: Cincinnati Observatory Center
(39.1389°N, 84.4225°W)
Time: 02:09:31
(UTC-04:00)
Language:

JAS-1B - Orbit

View from above orbital plane
View from above orbital plane
View from above satellite
View from above satellite

Ground track
Ground track

The orbit data is extracted from the following two-line orbital elements,

1 20480U 90013C   18168.46550544 -.00000006  00000-0  69144-4 0  9999
2 20480  99.0590 238.6634 0539362 284.1226  70.0529 12.83418462328570
Epoch (UTC): 17 June 2018 11:10:19
Eccentricity: 0.0539362
inclination: 99.0590°
perigee height: 912 km
apogee height: 1743 km
right ascension of ascending node: 238.6634°
argument of perigee: 284.1226°
revolutions per day: 12.83418462
mean anomaly at epoch: 70.0529°
orbit number at epoch: 32857

The dashed part of the orbit path shows where the satellite is in the earth's shadow,  

DLR